Summary
SolveCast - Homelessness



What are the problems and solutions related to homelessness? The goal of this page is to use expert feedback, machine learning, your informed opinion and a library of millions of articles to provide a complete and up-to-date analysis of homelessness.

Homelessness is generally classified as problem. We are tracking 2 input(s) and 0 output(s) of homelessness.

Stay up to date on Homelessness
Exclusive analysis and alerts on problems and solutions related to Homelessness.
All Public Topics
The following is a list of all topics associated with homelessness. You can sort them by the date discovered, the number of mentions or other (enterprise only). This is a good place to start to watch for new or trending topics. Only topics discovered in media search, public experts are included here.
Entities Date Discovered Media Count Value Cost Per Month Adwords SEO Difficulty
Fundraising 2019-05-23 1287
Sleep 2019-02-12 418 0.48 19.2 78
Street 2019-02-14 411 0.32 10.2 72
Mental Health 2019-02-14 302 1.32 1210 80
County (United States) 2019-02-14 249 0 0 0
Hotel 2019-02-14 229 2.29 12700 78
Nonprofit Organization 2019-02-14 224 2.18 34.2 64
Twitter 2019-02-14 222 0.2 66700 72
Affordable Housing 2019-02-12 187 1.11 1750 59
Surveying 2019-02-14 180 1.4 67.5 74
Homeless Shelter 2019-02-14 178 1.15 232 50
Facebook 2019-02-14 175 0.22 11000 77
The Salvation Army 2019-02-14 169 0.72 350 65
Manager (association Football) 2019-02-14 155 0 0 0
Departments Of France 2019-02-14 146 0 0 54
Addiction 2019-02-12 141 5.46 1090 74
Dog 2019-02-14 132 0.81 283 72
Emergency Shelter 2019-02-14 131 0.73 24 42
Society 2019-02-14 128 0.62 13.8 90
United States Department Of Housing And Urban Development 2019-02-14 125 0 0 0
Hospital 2019-02-14 122 2.24 552 86
Mental Illness 2019-02-12 121 0.45 748 63
Chief Executive Officer 2019-02-14 120 4.32 4.5 59
Social Media 2019-02-12 118 1.52 429 78
Snow 2019-02-14 114 0.32 0.9 67
Park 2019-02-14 109 0.73 9.3 83
Poverty 2019-02-14 109 1.23 18.9 69
Health Care 2019-02-14 108 6.24 4380 87
Social Work 2019-02-14 107 5.15 7190 82
Mayor 2019-02-14 98 0 0 67
Domestic Violence 2019-02-12 89 0 0 66
Bill (law) 2019-02-14 87 0 0 0
District 2019-02-14 84 0.55 36.6 70
Windchill 2019-02-12 81 0 0 67
Cold Snap 2019-02-12 81 0.39 24 61
Propane 2019-02-14 80 0 0 66
Tent City 2019-02-14 79 0.87 2.7 63
Coffee 2019-02-12 78 1.81 1330 81
Time (magazine) 2019-02-14 78 0 0 0
Seat Of Local Government 2019-02-14 78 0 0 0
Census 2019-02-14 75 0.78 546 75
Supportive Housing 2019-02-14 74 0.77 44.4 50
Polar Vortex 2019-02-14 73 0 0 0
Substance Abuse 2019-02-12 72 29.07 1730 76
Midwestern United States 2019-02-14 69 0 0 0
Christmas 2019-02-14 67 0.13 10.2 72
Hygiene 2019-02-14 65 0.29 1.2 65
Camping 2019-02-14 63 0.76 190 57
National Weather Service 2019-02-14 60 0.44 544 77
Housing First 2019-02-14 60 0.52 0 51
Samaritans 2019-02-14 58 4.78 1520 75
Frostbite 2019-02-14 58 0.07 0.6 71
Instagram 2019-02-14 57 0.25 197000 72
God 2019-02-12 56 0.65 420 74
Air 2019-02-14 56 0 0 64
Kindness 2019-02-14 56 0.54 12.9 62
Bank 2019-02-14 55 3.96 6630 88
Bridge 2019-02-14 54 0.38 53.7 71
Councillor 2019-02-14 53 0 0 40
Wales 2019-02-14 52 0.3 48.9 78
Chills 2019-02-14 50 0.2 1.5 73
Hypothermia 2019-02-12 49 0.15 7.8 67
President Of The United States 2019-02-12 47 0.4 1.2 75
Public Health 2019-02-14 46 3.62 1060 84
Race in the United States 2019-02-12 45 0 0 0
Labour Party (UK) 2019-02-14 45 0 0 0
Motel 2019-02-14 44 1.26 3570 68
Psychotherapy 2019-02-12 44 2.9 168 74
Secondary School 2019-02-14 43 0.67 5.1 71
Association Football 2019-02-14 42 0 0 75
Begging 2019-02-14 42 0 0 64
Trauma 2019-02-12 41 0.25 8.4 64
Depression 2019-02-12 41 0 0 71
Ambulance 2019-02-14 41 0.29 0.9 70
United Way Of America 2019-02-14 40 1.03 0.6 60
Canned Soup 2019-02-12 39 0.32 0.9 61
GoFundMe 2019-02-14 39 0.15 27000 68
Village 2019-02-14 39 0 0 71
Homicide 2019-02-17 22 0 0 58
Career Counseling 2019-03-10 14
Empathy 2019-04-02 12 1.81 0 64
Workplace 2019-04-09 1 0.22 1090 77
Climate Change 2018-11-06 0 3.36 2340 72
Poverty 2019-01-03 0
Word Cloud
Latest Articles
Published Facebook Count Title
First-of-Its-Kind Miami Community Gets $19M in Financing (Added 2 weeks ago) (i)
2019-04-05 46 Top Workplace: At the Crisis Center of Tampa Bay the stakes are high, but the job rewarding (Added 4 months ago) (i)
2018-12-16 0 Oregon Global Warming Commission Publishes Biennial Report to the Legislature.(Report) (Added 6 months ago) (i)
2019-01-24 476 Salesforce CEO Marc Benioff calls artificial intelligence a 'new human right' (Added 6 months ago) (i)
The U.S. Government Needs to Start Taking Climate-Fueled Migration Seriously, GAO Warns (Added 6 months ago) (i)
Opinion | As the climate worsens, wealth inequality will, too (Added 7 months ago) (i)
Carbon emissions from global shipping to be halved by 2050, says IMO (Added 8 months ago) (i)
9 effects of climate change that will make your life a living hell (Added 8 months ago) (i)
2018-10-08 Los Angeles Is Dealing With an Outbreak of Flea-Borne Typhus (Added 9 months ago) (i)
2018-10-14 This Song Proves That All We Need To Fix Our Problems Is A Little Bit Of Duct Tape (Added 9 months ago) (i)
2018-10-29 Bitcoin trading uses so much power that it could push global temperatures up past a threshold that yields deadly consequences (Added 9 months ago) (i)
As oil and gas exports surge, West Texas becomes the world’s ‘extraction colony’ (Added 9 months ago) (i)
Pulitzer Prize Awarded to Journalist for Exposé of Melania Trump's Pants (Added 11 months ago) (i)
Do we need a blockchain? - Chris Skinner's blog (Added 1 year ago) (i)
Key Stats
SEO Difficulty +
Adword Cost Per Month +
Adword Cost Per Click +
Global Monthly Searches Exact +
Google Trends